SCP
0 0 0 0 0 0 0 0 0 0 0 0 0 0 0 0 0 0 0 0 0 0 0 0 0 0 0 0 0 0 0 0 0 0 0 0 0 0 0 0 0 0 0
0 0 0 0 0 0 0 0 0 0 0 0 0 0 0 0 0 0 0 0 0 0 0 0 0 0 0 0 0 0 0 0 0 0 0 0 0 0 0 0 0 0 0
0 0 0 0 0 0 0 0 0 0 0 0 0 0 0 0 0 0 0 0 0 0 0 0 0 0 0 0 0 0 0 0 0 0 0 0 0 0 0 0 0 0 0
0 0 0 0 0 0 0 0 0 0 0 0 0 0 0 0 0 0 0 0 0 0 0 0 0 0 0 0 0 0 0 0 0 0 0 0 0 0 0 0 0 0 0
0 0 0 0 0 0 0 0 0 0 0 0 0 0 0 0 0 0 0 0 0 0 0 0 0 0 0 0 0 0 0 0 0 0 0 0 0 0 0 0 0 0 0
0 0 0 0 0 0 0 0 0 0 0 0 0 0 0 0 0 0 0 0 0 0 0 0 0 0 0 0 0 0 0 0 0 0 0 0 0 0 0 0 0 0 0
0 0 0 0 0 0 0 0 0 0 0 0 0 0 0 0 0 0 0 0 0 0 0 0 0 0 0 0 0 0 0 0 0 0 0 0 0 0 0 0 0 0 0
0 0 0 0 0 0 0 0 0 0 0 0 0 0 0 0 0 0 0 0 0 0 0 0 0 0 0 0 0 0 0 0 0 0 0 0 0 0 0 0 0 0 0
0 0 0 0 0 0 0 0 0 0 0 0 0 0 0 0 0 0 0 0 0 0 0 0 0 0 0 0 0 0 0 0 0 0 0 0 0 0 0 0 0 0 0
0 0 0 0 0 0 0 0 0 0 0 0 0 0 0 0 0 0 0 0 0 0 0 0 0 0 0 0 0 0 0 0 0 0 0 0 0 0 0 0 0 0 0
0 0 0 0 0 0 0 0 0 0 0 0 0 0 0 0 0 0 0 0 0 0 0 0 0 0 0 0 0 0 0 0 0 0 0 0 0 0 0 0 0 0 0
0 0 0 0 0 0 0 0 0 0 0 0 0 0 0 0 0 0 0 0 0 0 0 0 0 0 0 0 0 0 0 0 0 0 0 0 0 0 0 0 0 0 0
0 0 0 0 0 0 0 0 0 0 0 0 0 0 0 0 0 0 0 0 0 0 0 0 0 0 0 0 0 0 0 0 0 0 0 0 0 0 0 0 0 0 0
0 0 0 0 0 0 0 0 0 0 0 0 0 0 0 0 0 0 0 0 0 0 0 0 0 0 0 0 0 0 0 0 0 0 0 0 0 0 0 0 0 0 0
0 0 0 0 0 0 0 0 0 0 0 0 0 0 0 0 0 0 0 0 0 0 0 0 0 0 0 0 0 0 0 0 0 0 0 0 0 0 0 0 0 0 0
0 0 0 0 0 0 0 0 0 0 0 0 0 0 0 0 0 0 0 0 0 0 0 0 0 0 0 0 0 0 0 0 0 0 0 0 0 0 0 0 0 0 0
0 0 0 0 0 0 0 0 0 0 0 0 0 0 0 0 0 0 0 0 0 0 0 0 0 0 0 0 0 0 0 0 0 0 0 0 0 0 0 0 0 0 0
0 0 0 0 0 0 0 0 0 0 0 0 0 0 0 0 0 0 0 0 0 0 0 0 0 0 0 0 0 0 0 0 0 0 0 0 0 0 0 0 0 0 0
0 0 0 0 0 0 0 0 0 0 0 0 0 0 0 0 0 0 0 0 0 0 0 0 0 0 0 0 0 0 0 0 0 0 0 0 0 0 0 0 0 0 0
0 0 0 0 0 0 0 0 0 0 0 0 0 0 0 0 0 0 0 0 0 0 0 0 0 0 0 0 0 0 0 0 0 0 0 0 0 0 0 0 0 0 0
0 0 0 0 0 0 0 0 0 0 0 0 0 0 0 0 0 0 0 0 0 0 0 0 0 0 0 0 0 0 0 0 0 0 0 0 0 0 0 0 0 0 0
0 0 0 0 0 0 0 0 0 0 0 0 0 0 0 0 0 0 0 0 0 0 0 0 0 0 0 0 0 0 0 0 0 0 0 0 0 0 0 0 0 0 0
0 0 0 0 0 0 0 0 0 0 0 0 0 0 0 0 0 0 0 0 0 0 0 0 0 0 0 0 0 0 0 0 0 0 0 0 0 0 0 0 0 0 0
0 0 0 0 0 0 0 0 0 0 0 0 0 0 0 0 0 0 0 0 0 0 0 0 0 0 0 0 0 0 0 0 0 0 0 0 0 0 0 0 0 0 0
0 0 0 0 0 0 0 0 0 0 0 0 0 0 0 0 0 0 0 0 0 0 0 0 0 0 0 0 0 0 0 0 0 0 0 0 0 0 0 0 0 0 0
0 0 0 0 0 0 0 0 0 0 0 0 0 0 0 0 0 0 0 0 0 0 0 0 0 0 0 0 0 0 0 0 0 0 0 0 0 0 0 0 0 0 0
Wind_Speed
2 2 2 2 2 1 1 1 2 4 3 4 4 5 5 5 5 4 4 8 9 10 10 9 9 9 9 9 9 8 9 9 8 8 8 7 7 7 7 7 7 7 6
3 3 3 3 2 2 1 2 3 3 3 3 5 4 4 4 5 5 4 5 8 8 8 8 8 8 8 8 8 8 8 8 8 7 7 7 7 8 7 6 6 6 5
3 3 3 3 2 2 3 3 3 3 3 4 4 4 4 5 4 4 4 3 3 6 7 7 7 7 7 7 7 7 7 7 7 7 7 7 7 7 7 6 6 6 5
4 3 3 2 2 3 2 2 2 2 3 2 2 2 3 3 4 3 2 3 3 3 4 6 6 7 7 6 6 6 6 6 6 6 6 6 6 6 6 6 6 6 5
4 3 2 2 3 3 3 3 3 2 2 2 1 2 2 3 2 2 3 3 3 4 3 4 5 6 6 6 6 6 6 6 6 6 6 6 6 5 5 6 6 5 5
4 3 2 3 3 3 3 2 2 2 2 1 2 3 2 2 1 2 2 3 3 4 3 4 3 3 5 6 6 5 5 6 6 6 6 5 5 5 5 6 6 6 6
4 3 3 3 3 2 2 3 2 2 1 1 2 2 1 1 2 2 2 2 2 3 3 3 2 2 2 5 5 5 5 6 6 6 6 6 6 6 6 6 6 6 5
4 3 3 2 2 2 2 3 3 2 1 1 1 1 1 2 2 1 1 1 2 2 2 3 3 3 3 2 4 5 5 5 5 6 6 5 5 5 5 5 6 6 6
4 3 3 2 2 2 1 1 2 1 1 1 1 1 1 1 1 1 0 1 1 1 1 1 3 3 3 2 2 3 5 4 4 4 4 5 5 5 5 5 5 5 5
3 3 3 3 2 2 2 1 2 1 1 1 1 1 1 1 1 0 1 0 1 1 1 1 2 2 3 3 3 5 5 5 4 4 4 5 5 5 5 5 5 5 5
3 3 3 3 3 2 2 2 2 2 1 0 0 1 1 1 1 1 0 1 1 0 1 1 2 2 2 2 2 4 5 4 4 4 4 5 5 5 5 5 5 5 4
1 2 3 2 3 2 2 2 1 2 2 2 1 1 1 0 0 1 1 1 0 1 0 1 1 1 2 2 3 5 5 4 3 3 4 4 5 5 5 5 5 5 5
1 1 1 1 1 2 2 2 2 1 1 2 1 1 1 1 1 1 1 0 0 0 0 1 0 1 2 2 2 4 4 3 3 3 3 4 4 5 5 5 5 4 5
0 1 1 1 2 2 2 2 2 2 2 2 2 2 1 1 1 1 1 1 1 1 1 1 1 1 2 2 2 2 2 3 3 2 2 2 3 4 4 5 5 5 5
0 1 1 1 1 2 2 2 2 2 2 1 1 1 1 1 1 1 1 1 1 0 1 0 1 1 1 2 2 1 2 3 2 2 2 2 3 3 4 4 5 5 5
1 1 1 1 2 2 2 2 1 2 2 2 1 2 1 1 2 1 1 1 1 1 1 0 0 1 1 1 2 1 1 2 2 2 2 2 3 3 4 5 5 5 5
1 1 1 2 2 2 2 2 2 1 1 1 2 2 2 2 2 2 1 1 1 1 0 1 0 1 2 1 1 1 1 1 1 2 2 1 1 2 3 4 4 4 5
1 1 1 2 2 2 2 2 2 2 1 1 2 2 2 2 2 2 1 1 1 0 1 0 0 1 1 0 0 0 1 1 1 2 2 1 1 1 2 3 3 3 4
1 1 2 2 2 2 2 1 1 1 1 1 1 1 1 2 2 2 2 1 1 1 0 1 0 0 0 0 0 1 1 0 0 1 1 1 0 1 2 2 2 2 3
1 1 1 1 2 2 2 2 2 2 1 1 1 2 1 2 2 2 2 1 1 1 1 0 0 0 0 0 1 0 1 1 1 1 1 1 1 1 2 2 2 2 2
1 0 1 1 1 1 2 2 2 2 1 1 1 2 2 3 3 3 2 1 1 0 1 0 0 0 0 0 0 1 1 1 1 0 1 1 1 1 1 2 2 2 1
1 1 1 1 1 1 3 5 3 2 1 1 1 1 1 2 4 4 5 3 1 0 0 1 1 1 1 1 0 0 0 1 2 1 1 2 1 1 1 1 1 1 1
1 1 1 1 1 1 2 4 4 2 1 0 0 1 2 2 3 2 3 3 2 1 1 2 2 2 2 2 2 1 1 1 2 2 0 2 1 1 2 1 1 2 1
1 1 1 1 1 1 2 3 4 2 1 1 0 1 1 2 3 3 2 3 2 2 3 2 3 3 2 2 3 3 3 1 1 1 1 1 2 2 2 1 2 1 1
1 1 1 1 1 1 2 3 3 1 1 2 1 1 1 1 4 5 3 3 3 2 2 3 3 2 1 2 1 1 1 1 1 2 0 0 1 2 2 1 1 1 2
0 1 1 1 1 1 2 3 3 1 1 1 1 1 2 3 4 6 2 2 3 2 2 2 2 1 1 1 1 2 2 2 0 1 1 0 1 1 2 2 1 1 1
Wind_Direction
39 48 68 59 70 74 71 35 32 40 35 46 57 66 75 78 91 93 92 92 92 88 86 84 83 82 79 75 76 80 81 79 77 75 72 71 70 69 69 71 70 71 74
41 38 50 44 41 43 40 59 60 54 46 47 53 53 60 73 86 92 96 92 92 88 83 83 83 80 80 79 78 79 81 79 77 75 72 70 67 70 68 68 69 68 68
47 37 41 38 29 33 45 46 56 53 55 54 51 54 54 57 72 86 100 102 98 89 85 82 82 78 79 81 80 80 79 75 73 69 68 68 66 66 62 60 61 64 68
46 43 36 35 31 31 40 51 62 60 55 58 54 57 66 60 60 75 91 107 108 98 89 86 82 78 77 79 78 76 73 70 69 69 66 67 65 61 58 56 54 60 66
40 44 28 31 37 33 33 42 48 59 59 53 69 77 75 74 53 60 69 78 96 100 100 96 86 81 79 78 77 74 72 71 70 72 67 62 59 57 58 55 53 56 58
37 44 31 31 37 36 38 44 50 48 59 46 63 72 76 89 70 58 60 66 80 98 102 102 95 77 76 78 76 72 69 67 65 67 67 61 57 56 59 56 52 50 51
24 46 37 28 30 33 35 44 48 56 40 43 70 54 38 68 84 83 69 63 70 81 94 104 109 95 77 73 67 71 68 66 62 62 63 59 57 58 57 53 50 47 44
20 37 40 37 30 31 29 39 41 34 10 36 76 90 47 8 5 67 81 88 74 65 79 99 98 95 95 85 69 70 65 68 63 63 60 59 61 59 58 58 53 47 42
24 23 25 36 34 37 31 35 48 42 5 353 51 101 118 181 298 328 65 97 93 64 50 71 99 101 100 95 86 67 66 66 65 60 59 56 56 55 54 49 47 44 38
21 20 24 23 33 31 29 18 40 23 44 333 333 360 109 132 141 269 319 19 108 107 93 65 85 103 98 95 93 88 80 64 60 55 55 53 49 48 47 44 40 36 30
11 16 23 26 19 19 23 37 23 11 26 4 338 339 1 17 49 130 219 325 357 337 96 95 95 102 115 114 111 101 93 75 62 52 50 45 40 38 38 39 32 24 17
1 10 20 27 18 11 10 27 29 16 14 3 359 10 21 43 354 102 166 179 202 279 25 73 103 112 114 112 107 104 102 87 74 60 48 40 30 25 23 21 19 15 11
4 335 7 30 22 13 13 19 19 22 20 15 11 359 347 346 56 85 100 158 176 278 53 357 99 110 105 105 105 109 114 105 92 77 55 39 23 17 15 12 12 8 6
340 334 15 19 24 28 27 24 9 13 32 34 20 19 3 346 9 47 112 110 39 3 42 318 19 65 78 98 102 102 110 114 106 91 67 46 23 12 13 10 9 8 4
20 14 16 44 35 27 43 37 10 8 9 20 6 14 14 344 349 4 55 103 123 140 264 302 49 25 67 92 126 112 114 108 101 84 61 35 16 9 6 5 9 9 3
50 21 7 29 45 35 40 54 16 3 16 12 5 20 18 358 346 357 33 41 75 125 214 295 353 334 46 94 123 113 127 126 122 104 75 51 31 16 9 6 7 6 5
56 58 32 41 45 36 40 39 19 18 35 10 9 20 7 5 6 352 16 32 30 77 119 302 15 40 47 68 39 8 123 153 158 145 128 91 45 15 3 5 6 5 6
24 44 42 41 41 36 46 41 0 357 33 28 20 23 0 3 7 354 11 18 352 64 142 197 315 35 52 113 105 338 107 127 170 167 163 149 55 13 359 360 2 1 1
35 33 34 38 33 24 22 20 13 351 22 44 41 36 11 14 5 355 348 9 347 352 93 148 237 232 74 125 88 316 4 8 16 120 165 179 311 339 339 339 343 336 340
66 57 41 39 30 19 19 13 2 351 0 21 37 27 28 45 16 357 350 358 26 7 351 92 84 54 129 10 74 326 346 353 343 349 305 284 253 264 315 333 314 304 317
26 64 66 28 24 21 11 13 4 353 360 1 27 34 43 53 32 14 359 349 14 14 358 24 156 31 56 77 271 284 313 313 303 330 319 299 289 280 278 290 281 281 292
39 50 53 54 45 18 13 12 2 332 339 29 41 35 41 54 43 25 13 6 7 56 218 222 243 229 225 199 208 285 358 14 307 310 9 305 320 290 273 257 285 262 268
76 81 64 74 69 43 31 16 0 340 327 325 24 15 7 34 26 0 347 347 334 335 264 217 214 232 221 195 172 208 225 220 254 261 27 285 286 286 274 272 242 226 247
84 100 97 91 83 27 15 18 4 356 347 355 14 60 44 17 3 3 350 342 315 280 254 233 213 223 228 208 191 202 217 233 275 304 81 265 283 286 289 271 260 232 259
76 84 94 97 88 16 358 10 18 9 26 358 359 34 54 23 3 5 356 333 317 298 270 245 243 246 258 255 200 147 162 147 305 286 269 162 279 309 301 264 285 290 298
84 86 93 107 98 62 13 13 18 24 37 359 4 25 23 4 2 0 340 318 299 291 305 305 290 290 250 255 202 174 181 177 212 279 268 116 289 349 320 300 308 311 296